Theta_e
306 306 307 307 306 305 308 311 304 313 316 302 305 301 302 300 304 305 303 305 304 304 303 304 305 305 308 308 312 309 313 310 304 306 311 312 312 311 312 305 306 307 306 306
306 307 307 306 305 305 310 310 308 315 314 298 299 303 301 302 302 303 302 302 305 305 304 302 304 305 308 308 311 312 313 308 303 305 309 311 308 311 312 313 314 307 304 306
307 307 307 306 305 305 309 311 302 306 309 310 303 301 300 300 306 304 304 304 305 304 304 307 304 305 306 308 310 320 316 312 307 302 306 310 307 308 311 312 307 307 308 310
305 305 306 306 305 305 309 312 306 305 300 304 304 305 303 300 302 305 306 304 303 303 302 304 304 305 306 308 311 314 314 309 310 309 309 309 308 308 309 310 311 308 310 310
305 305 306 306 305 304 310 307 307 308 307 304 304 301 302 301 303 305 304 304 306 307 304 304 303 307 308 307 312 313 315 310 311 307 309 310 307 308 311 312 312 312 312 312
305 305 305 306 304 305 307 309 310 307 299 304 301 303 304 303 306 308 310 308 308 306 308 311 313 315 316 314 311 309 312 311 309 303 309 309 305 308 309 312 314 313 309 316
304 304 305 305 305 303 307 305 306 303 300 303 304 303 305 304 306 305 309 309 308 313 317 317 316 314 314 314 314 315 310 314 311 304 308 299 309 317 316 312 314 318 318 322
304 304 304 304 305 303 306 306 305 303 299 302 302 303 304 306 307 306 306 309 314 316 314 307 304 304 307 308 311 313 313 310 305 303 302 306 308 314 314 314 313 321 321 325
303 304 305 305 304 303 306 305 305 304 299 298 301 301 303 303 304 305 306 312 314 315 309 306 300 297 301 301 304 312 311 314 309 306 300 298 309 323 328 327 311 326 326 326
304 304 304 304 304 304 303 304 305 302 297 301 302 300 300 305 304 303 306 307 309 314 306 302 300 299 305 300 301 304 305 307 302 302 302 306 318 325 327 312 314 330 329 329
304 304 303 304 304 303 302 303 305 301 299 300 300 303 303 304 304 300 305 303 306 307 303 303 304 302 306 304 307 306 304 303 301 303 301 300 323 323 317 326 332 333 333 333
303 303 303 303 303 304 303 302 306 303 298 300 302 303 304 304 305 305 306 305 309 311 306 309 309 305 308 306 301 316 306 310 307 307 306 324 327 329 333 332 332 334 334 334
303 303 303 303 303 304 303 302 304 303 300 302 302 303 307 307 305 307 302 307 313 313 314 311 310 306 311 304 305 311 316 320 312 314 318 322 326 331 332 334 333 337 335 335
303 303 303 303 303 304 304 301 306 303 301 297 302 307 306 308 308 306 305 307 315 314 312 311 309 305 311 308 310 310 315 319 315 315 321 324 327 330 331 331 334 333 335 334
303 302 302 303 303 304 304 305 307 306 300 298 302 307 308 308 308 306 306 305 305 306 305 307 306 312 310 311 311 309 317 315 313 311 322 323 326 330 330 331 331 332 331 327
302 303 303 303 303 304 305 302 307 308 306 300 299 306 306 309 310 309 307 307 305 305 305 307 310 311 309 306 305 314 315 316 318 317 324 325 328 329 331 329 330 332 332 325
302 303 303 303 303 303 303 301 304 303 307 301 300 302 309 311 309 308 307 307 307 306 306 304 305 308 308 305 303 312 313 315 316 318 321 321 323 324 329 331 329 327 332 329
303 303 303 303 303 304 304 309 303 305 303 304 300 302 304 311 306 305 310 306 306 307 305 308 304 306 306 300 306 310 313 315 315 316 317 321 322 325 327 330 329 328 328 328
302 303 305 307 305 303 303 307 305 309 303 299 302 300 297 310 310 312 310 309 301 310 303 304 304 301 299 304 307 311 313 313 314 316 316 317 320 320 322 325 326 324 326 327
301 305 303 300 305 305 307 305 301 302 302 303 300 305 301 306 307 305 307 309 304 301 304 310 302 300 306 310 312 315 314 315 316 314 311 315 315 317 318 321 325 326 325 328
304 301 301 306 304 307 304 297 297 300 296 302 305 305 302 310 304 305 309 306 307 298 303 301 300 299 305 310 312 314 315 316 316 317 318 319 319 317 316 316 320 326 328 327
302 302 304 307 303 301 295 294 297 297 298 303 303 306 307 309 312 306 308 302 305 295 307 301 297 306 308 309 311 312 314 314 315 317 318 318 319 320 318 317 319 325 327 329
304 301 300 300 299 288 290 289 295 298 305 306 307 304 308 310 310 305 304 298 298 308 300 299 300 302 306 309 311 312 314 315 315 315 317 319 319 320 320 318 321 325 328 328
299 295 287 293 292 295 296 296 299 300 305 304 304 305 305 308 304 307 298 303 304 296 294 295 297 303 304 308 311 312 312 314 314 314 316 318 319 321 322 320 321 325 326 328
297 296 288 292 300 302 303 303 305 306 307 305 304 304 304 304 300 304 301 297 294 296 293 296 302 304 307 307 309 310 311 312 312 313 314 317 319 321 321 323 325 326 327 327
299 297 294 299 298 297 299 300 302 307 306 308 305 301 298 296 299 296 295 294 294 294 299 303 305 307 306 307 306 306 309 310 311 313 314 317 320 321 322 325 327 328 326 323
296 296 301 300 301 301 303 307 305 308 304 298 302 294 294 302 296 294 300 297 301 303 305 306 308 306 307 305 306 308 309 309 313 314 314 317 317 317 317 316 318 321 321 322
Wind_Speed
21 22 23 23 26 30 8 4 4 3 4 8 4 9 4 1 8 4 2 1 1 1 2 6 7 9 2 3 8 9 14 8 9 12 5 5 8 10 9 9 12 9 9 4
20 22 23 24 25 23 7 2 2 4 5 6 9 3 7 3 8 5 4 4 2 1 3 4 3 5 5 1 6 10 9 8 9 11 10 8 11 12 13 9 7 9 10 8
20 22 22 24 25 23 6 4 4 4 4 2 6 7 9 9 2 3 3 2 4 4 5 1 4 8 6 2 1 4 6 5 10 11 8 5 14 13 14 14 11 10 10 10
21 22 22 24 27 23 6 2 4 6 6 5 4 7 3 11 7 4 7 6 8 7 7 8 6 4 5 6 5 2 6 8 10 11 9 7 13 7 12 15 17 7 3 2
20 21 21 24 28 29 3 5 4 4 3 2 5 4 4 7 5 6 9 10 5 7 9 6 6 2 3 2 4 3 4 6 6 11 7 8 11 13 11 15 9 10 8 7
19 20 21 21 25 22 4 2 1 6 5 6 8 7 7 6 3 3 4 1 7 8 2 5 7 7 7 7 4 3 4 6 8 12 3 8 11 13 14 17 14 13 12 4
17 18 19 18 19 19 5 4 5 5 5 7 5 4 5 7 3 1 3 2 4 7 9 11 7 9 10 10 10 9 5 5 5 10 4 13 4 3 8 13 14 11 10 2
15 16 16 17 15 18 4 4 5 4 3 4 6 7 6 5 5 6 4 1 6 8 8 6 7 9 10 12 14 14 13 7 8 10 12 13 6 4 7 10 13 11 8 3
13 14 15 15 13 15 6 5 5 4 7 4 5 6 6 8 8 6 5 2 4 5 6 6 9 8 9 9 7 11 12 10 9 9 14 19 12 9 1 2 11 7 3 3
12 13 14 14 14 11 9 3 7 5 5 4 3 4 4 2 4 6 3 1 5 4 8 9 9 12 8 10 12 8 13 11 15 13 12 9 5 3 1 11 2 6 5 3
12 12 12 13 13 13 9 3 5 6 4 3 3 3 5 4 6 7 6 6 8 6 9 9 6 8 6 9 4 5 12 10 12 14 15 17 4 5 8 7 5 7 5 4
10 11 12 11 11 11 11 2 2 4 6 6 4 8 9 8 7 6 4 6 2 5 6 3 5 5 3 9 9 5 8 5 5 5 7 5 3 5 6 5 6 7 6 2
7 9 12 11 10 9 8 5 4 4 4 5 5 4 4 8 13 9 6 4 4 3 5 5 3 6 4 7 11 2 4 1 6 4 5 1 2 2 3 6 6 7 4 3
8 9 11 11 10 10 8 3 3 4 4 6 6 3 4 1 6 10 12 5 3 5 4 3 4 5 1 3 6 6 7 1 3 7 2 5 5 6 6 6 5 2 3 4
10 10 11 11 11 11 7 4 3 3 6 6 2 1 3 4 5 8 9 9 7 4 4 4 2 2 5 5 4 8 2 5 5 2 8 7 7 6 6 5 5 4 7 7
11 11 11 11 11 11 6 5 4 3 3 5 3 4 4 3 4 7 7 6 6 5 4 2 2 1 5 5 7 7 5 4 8 7 10 6 6 4 4 3 2 4 7 9
11 12 11 11 10 6 4 7 5 1 3 4 4 6 5 3 6 5 5 6 4 5 4 5 6 5 4 6 10 6 5 5 5 8 8 0 4 3 3 2 4 3 9 12
12 13 13 11 8 8 5 2 7 5 5 4 4 2 7 4 5 5 4 5 5 6 6 3 6 5 5 7 8 6 6 9 7 3 6 7 5 3 0 1 5 6 8 10
13 14 3 4 5 2 3 4 6 4 5 4 3 3 3 3 2 1 4 3 6 2 6 8 5 6 7 6 10 2 3 5 8 9 8 8 7 4 3 1 3 4 6 9
10 5 4 2 3 2 6 5 2 4 4 3 4 0 3 4 3 4 3 4 4 3 5 1 6 10 7 6 2 4 5 5 5 8 8 6 6 2 4 5 3 7 6 9
4 3 1 4 1 4 2 2 4 3 4 5 3 2 2 2 3 0 1 2 2 4 4 5 4 5 8 5 5 4 6 6 8 8 8 8 9 7 7 3 5 3 9 9
4 4 2 3 5 3 3 3 2 5 1 5 2 2 3 1 2 3 2 3 2 5 4 4 5 6 5 3 3 5 6 6 8 9 10 10 10 8 7 6 6 8 5 7
3 3 3 3 3 1 5 6 4 3 0 2 2 3 2 3 3 4 3 5 5 2 4 3 5 5 6 6 7 8 10 9 9 10 10 10 11 11 10 8 6 6 9 9
3 3 1 5 4 5 0 3 1 2 2 3 3 2 2 1 3 2 4 3 3 5 5 2 2 7 9 11 10 11 12 12 11 11 11 10 9 9 9 9 6 7 8 10
3 3 4 6 1 1 1 2 2 3 2 4 3 3 3 2 3 3 3 4 5 2 3 0 3 8 11 12 13 14 13 12 10 11 11 10 9 8 7 6 6 7 8 10
3 3 3 3 4 4 1 3 2 1 3 2 3 2 3 3 2 3 5 4 2 3 1 4 8 11 11 11 10 13 13 11 11 10 9 10 9 3 4 5 5 6 8 7
4 4 2 4 2 1 2 1 3 3 5 2 3 3 5 2 4 3 3 4 3 4 6 7 10 11 11 9 11 12 9 9 8 7 5 4 8 8 9 10 10 9 8 9
Wind_Direction
353 353 348 349 347 340 286 286 204 118 286 200 218 217 207 204 165 184 156 247 290 220 181 182 201 184 56 114 162 190 210 237 245 246 100 285 269 259 221 248 191 236 301 310
352 355 351 350 349 354 312 332 83 168 262 213 202 132 176 217 183 185 190 172 273 211 175 190 205 166 103 120 208 177 168 214 225 207 197 194 221 222 225 250 287 266 269 251
358 355 352 352 348 349 285 265 171 151 210 4 283 187 196 170 161 174 230 143 230 213 211 167 160 167 154 18 297 8 231 215 254 281 25 351 202 225 211 222 243 245 226 281
356 355 354 354 348 347 281 301 70 358 180 153 177 214 210 209 175 219 218 198 239 222 221 217 205 195 186 174 136 191 225 248 229 257 279 266 275 241 202 220 240 258 333 224
358 358 357 358 352 336 271 320 303 179 119 194 209 161 182 201 159 222 177 235 186 210 238 253 201 269 220 43 173 205 192 258 261 259 232 255 248 246 232 212 252 259 283 277
357 358 360 6 1 339 20 35 190 285 132 186 224 192 166 177 192 158 19 62 234 208 113 330 317 291 289 288 306 282 255 267 237 254 162 254 239 240 238 226 230 244 247 253
357 357 1 7 9 0 330 20 289 269 155 236 211 179 219 200 155 342 150 275 251 50 310 287 247 252 251 251 248 235 276 250 270 265 213 236 267 359 288 256 243 238 260 342
359 355 3 5 15 1 350 6 313 318 256 295 192 205 214 198 192 230 252 246 30 321 291 246 229 222 234 227 229 212 221 260 251 248 235 251 218 215 237 225 235 226 244 152
356 352 360 2 18 4 310 40 318 300 304 143 2 233 224 240 218 191 219 173 335 285 274 230 223 221 212 202 193 212 199 228 263 227 252 251 249 125 89 284 242 144 222 195
344 354 2 0 5 10 322 41 359 280 285 90 260 233 256 226 267 266 121 157 219 239 243 235 223 233 214 230 209 175 196 216 222 227 246 255 74 84 207 221 86 353 327 314
347 353 356 356 1 3 331 41 5 327 303 293 268 267 251 194 242 252 82 218 192 239 239 239 223 256 176 244 258 213 207 205 214 233 237 237 83 163 241 19 343 357 354 358
346 353 348 348 355 348 330 307 22 325 265 344 314 289 284 279 349 319 185 355 28 5 264 240 311 215 215 244 218 175 239 296 293 265 225 67 3 351 15 318 312 308 327 344
342 346 339 338 342 342 339 319 350 252 270 234 237 205 162 232 238 270 284 131 356 158 342 341 303 276 308 229 234 279 182 259 255 274 137 79 18 17 18 4 328 310 298 167
335 338 337 332 336 330 322 305 343 277 294 281 107 180 253 297 219 223 232 322 301 278 267 271 277 264 15 265 357 271 26 169 265 255 76 314 81 40 22 0 5 9 82 112
325 327 330 327 328 322 293 247 244 267 307 335 360 213 110 185 181 198 210 227 255 297 247 241 248 322 266 203 287 244 32 18 273 9 30 334 45 4 358 11 36 62 97 98
309 316 319 322 323 320 266 200 160 214 268 276 246 93 167 159 190 192 185 199 219 255 298 251 244 84 272 258 249 71 83 56 12 354 337 335 326 1 360 351 52 100 114 131
302 306 309 309 311 294 298 5 27 306 251 264 248 165 136 170 159 160 173 184 206 246 245 242 269 199 230 265 256 131 324 314 354 333 330 170 18 1 21 66 107 138 116 130
303 305 298 293 285 267 240 99 180 238 269 249 278 148 182 196 188 162 180 183 207 204 258 226 250 208 231 253 255 283 313 307 285 0 338 298 335 296 101 169 155 145 127 126
307 311 252 173 225 185 30 121 171 244 297 283 256 266 113 184 154 147 180 234 227 148 239 234 235 229 225 254 242 236 300 336 306 298 304 283 272 338 0 262 190 134 140 141
298 251 215 184 75 355 186 186 229 220 179 244 267 335 187 266 189 169 193 195 266 254 191 138 236 243 242 185 238 267 285 298 307 289 277 255 182 184 327 308 239 170 168 153
211 220 75 58 62 219 213 248 238 137 229 202 222 296 320 120 280 343 251 295 214 256 143 247 219 233 173 171 254 269 284 281 284 284 281 274 264 264 243 199 287 239 169 155
7 346 231 216 215 220 238 231 222 233 228 167 229 136 283 98 292 263 193 257 243 256 129 246 235 79 85 257 311 313 295 290 283 280 282 279 276 270 270 261 235 174 153 165
188 219 211 213 166 258 228 187 193 193 138 27 317 187 226 175 232 251 222 228 234 23 224 226 52 355 334 331 319 317 314 305 302 293 280 274 275 271 260 255 231 192 172 177
234 193 228 237 187 231 192 133 70 208 304 280 337 264 272 166 225 250 248 221 253 244 232 105 37 348 330 321 314 306 306 305 299 304 290 283 281 284 267 232 214 197 182 173
239 230 230 204 296 113 25 37 191 102 301 283 239 225 272 222 273 228 281 237 249 298 63 124 277 307 302 300 303 306 304 302 305 302 300 294 293 282 228 194 190 192 175 170
243 237 263 199 211 160 134 164 151 251 305 228 233 260 254 243 292 260 235 250 271 84 235 273 272 281 298 287 285 287 285 279 283 275 280 278 260 207 124 106 118 133 135 166
236 199 209 303 252 305 138 70 42 355 273 351 296 238 227 324 238 246 244 332 15 325 309 309 321 306 289 282 274 278 278 274 274 277 269 106 111 131 124 112 108 105 113 113